Location: Risskov
(56.1972°N, 10.2480°E)
Time: 23:24:11
(UTC+00:00)

COSMOS 2455 - Pass Details

Date: 05 July 2020
Orbit: 898 x 911 km, 67.1° (Epoch: 14 August)

Event Time Altitude Azimuth Distance (km) Brightness Sun altitude
Rises 23:24:45 0° 316° (NW) 3,553 6.7 -11.1°
Reaches altitude 10° 23:27:19 10° 312° (NW) 2,608 5.9 -11.1°
Maximum altitude 23:33:09 52° 238° (WSW) 1,128 3.2 -11.1°
Enters shadow 23:38:23 13° 166° (SSE) 2,388 4.4 -11.1°
